This demonstration page uses our WeatherBlox Daily Observations layout. Learn more.

Left ArrowRight Arrow

40.92945, -100.16068

Hourly Observations for February 23, 2016

Temp ( °F °C ) Dew Point ( °F °C ) Humidity (%) Winds ( mph kmh ) Pressure ( in mb ) Visibility ( mi km ) Precip ( " mm )
12:15 am 00:15 Cloudy 39 3.7 34 1.3 85 85 E 3 6 30.06 1018 10 16.0934 N/A
12:35 am 00:35 Cloudy 38 3.6 34 1.3 85 85 ESE 5 7 30.06 1018 10 16.0934 N/A
12:55 am 00:55 Cloudy 38 3.5 34 1.1 84 84 E 3 6 30.06 1018 10 16.0934 N/A
1:15 am 01:15 Mostly Cloudy 38 3.4 34 0.9 84 84 ESE 3 6 30.09 1019 10 16.0934 N/A
1:35 am 01:35 Partly Cloudy 38 3.6 32 0.2 79 79 N N/A 30.06 1018 10 16.0934 N/A
1:55 am 01:55 Clear 36 2.4 33 0.3 86 86 N N/A 30.09 1019 10 16.0934 N/A
2:15 am 02:15 Clear 33 0.6 31 -0.8 90 90 NNW 7 11 30.09 1019 10 16.0934 N/A
2:35 am 02:35 Clear 32 undefined 30 -1.1 92 92 NNW 6 9 30.12 1020 10 16.0934 N/A
2:55 am 02:55 Clear 32 -0.2 29 -1.4 92 92 NNW 6 9 30.12 1020 10 16.0934 N/A
3:15 am 03:15 Clear 32 -0.1 29 -1.7 89 89 NW 5 7 30.12 1020 10 16.0934 N/A
3:35 am 03:35 Clear 32 undefined 30 -1 93 93 NW 9 15 30.15 1021 10 16.0934 N/A
3:55 am 03:55 Clear 32 -0.1 29 -1.7 89 89 NW 7 11 30.15 1021 10 16.0934 N/A
4:15 am 04:15 Partly Cloudy 31 -0.3 29 -1.6 91 91 NW 9 15 30.15 1021 10 16.0934 N/A
4:35 am 04:35 Clear 32 -0.2 28 -2 88 88 NNW 8 13 30.15 1021 10 16.0934 N/A
4:55 am 04:55 Clear 33 0.4 28 -2.3 82 82 NNW 10 17 30.15 1021 10 16.0934 N/A
5:15 am 05:15 Clear 32 0.2 27 -2.6 82 82 NNW 9 15 30.15 1021 10 16.0934 N/A
5:35 am 05:35 Clear 32 undefined 27 -3 80 80 NNW 9 15 30.15 1021 10 16.0934 N/A
5:55 am 05:55 Clear 32 undefined 26 -3.1 80 80 NNW 8 13 30.15 1021 10 16.0934 N/A
6:15 am 06:15 Clear 33 0.4 26 -3.1 78 78 N 9 15 30.15 1021 10 16.0934 N/A
6:35 am 06:35 Clear 32 0.1 26 -3.5 77 77 N 12 19 30.18 1022 10 16.0934 N/A
6:55 am 06:55 Clear 33 0.4 25 -4 73 73 N 14 22 30.18 1022 10 16.0934 N/A
7:15 am 07:15 Clear 32 0.1 24 -4.5 72 72 N 10 17 30.18 1022 10 16.0934 N/A
7:35 am 07:35 Sunny 32 undefined 24 -4.6 71 71 N 9 15 30.18 1022 10 16.0934 N/A
7:55 am 07:55 Sunny 32 -0.1 24 -4.6 72 72 N 9 15 30.21 1023 10 16.0934 N/A
8:15 am 08:15 Sunny 33 0.6 24 -4.2 71 71 NNW 8 13 30.21 1023 10 16.0934 N/A
8:35 am 08:35 Sunny 34 1.3 25 -3.9 69 69 NNW 9 15 30.24 1024 10 16.0934 N/A
8:55 am 08:55 Sunny 36 2.2 25 -3.9 64 64 NNW 13 20 30.21 1023 10 16.0934 N/A
9:15 am 09:15 Sunny 37 2.5 24 -4.2 62 62 NNW 18 30 30.21 1023 10 16.0934 N/A
9:35 am 09:35 Sunny 37 2.7 24 -4.3 60 60 NNW 16 26 30.21 1023 10 16.0934 N/A
9:55 am 09:55 Sunny 38 3.2 25 -3.8 60 60 NNW 17 28 30.24 1024 10 16.0934 N/A
10:15 am 10:15 Sunny 39 3.7 25 -3.8 58 58 NNW 18 30 30.21 1023 10 16.0934 N/A
10:35 am 10:35 Sunny 39 4 24 -4.3 55 55 N 20 31 30.21 1023 10 16.0934 N/A
10:55 am 10:55 Sunny 40 4.4 24 -4.4 53 53 N 21 33 30.21 1023 10 16.0934 N/A
11:15 am 11:15 Sunny 40 4.6 23 -5.2 49 49 N 21 33 30.24 1024 10 16.0934 N/A
11:35 am 11:35 Sunny 41 5.1 23 -5.1 48 48 NNW 23 37 30.18 1022 10 16.0934 N/A
11:55 am 11:55 Sunny 42 5.5 22 -5.6 45 45 N 23 37 30.18 1022 10 16.0934 N/A
12:15 pm 12:15 Sunny 42 5.7 21 -6.2 42 42 NNW 23 37 30.18 1022 10 16.0934 N/A
12:35 pm 12:35 Sunny 43 6 21 -6.2 42 42 N 21 33 30.15 1021 10 16.0934 N/A
12:55 pm 12:55 Sunny 44 6.4 20 -6.5 40 40 N 22 35 30.15 1021 10 16.0934 N/A
1:15 pm 13:15 Sunny 44 6.7 19 -7 37 37 N 23 37 30.15 1021 10 16.0934 N/A
1:35 pm 13:35 Sunny 44 6.9 20 -6.8 37 37 NNW 17 28 30.15 1021 10 16.0934 N/A
1:55 pm 13:55 Sunny 45 7 19 -7.1 36 36 N 21 33 30.12 1020 10 16.0934 N/A
2:15 pm 14:15 Sunny 46 7.5 19 -7.5 34 34 NNW 22 35 30.09 1019 10 16.0934 0.01 0.254
2:35 pm 14:35 Sunny 46 7.8 19 -7.5 33 33 N 20 31 30.09 1019 10 16.0934 0.01 0.254
2:55 pm 14:55 Sunny 47 8.1 17 -8.1 31 31 NNW 20 31 30.09 1019 10 16.0934 0.01 0.254
3:15 pm 15:15 Sunny 47 8.3 17 -8.5 30 30 NNW 17 28 30.09 1019 10 16.0934 N/A
3:35 pm 15:35 Sunny 47 8.6 16 -8.7 29 29 N 23 37 30.09 1019 10 16.0934 N/A
3:55 pm 15:55 Sunny 48 8.7 17 -8.3 29 29 N 22 35 30.06 1018 10 16.0934 N/A
4:15 pm 16:15 Sunny 47 8.5 16 -9.1 28 28 NNW 22 35 30.06 1018 10 16.0934 N/A
4:35 pm 16:35 Sunny 47 8.5 16 -8.8 29 29 N 21 33 30.06 1018 10 16.0934 N/A
4:55 pm 16:55 Sunny 47 8.3 16 -8.9 29 29 N 18 30 30.06 1018 10 16.0934 N/A
5:15 pm 17:15 Sunny 46 8 16 -8.9 29 29 N 18 30 30.09 1019 10 16.0934 N/A
5:35 pm 17:35 Sunny 46 7.5 16 -9 30 30 N 14 22 30.09 1019 10 16.0934 N/A
5:55 pm 17:55 Sunny 44 6.9 15 -9.5 30 30 N 16 26 30.12 1020 10 16.0934 N/A
6:15 pm 18:15 Sunny 42 5.7 15 -9.3 33 33 N 12 19 30.12 1020 10 16.0934 N/A
6:35 pm 18:35 Clear 40 4.6 16 -9.1 37 37 N 10 17 30.15 1021 10 16.0934 N/A
6:55 pm 18:55 Clear 36 2.1 17 -8.2 47 47 N 7 11 30.18 1022 10 16.0934 N/A
7:15 pm 19:15 Clear 32 0.1 17 -8.3 54 54 N 7 11 30.21 1023 10 16.0934 N/A
7:35 pm 19:35 Clear 32 -0.2 17 -8.1 56 56 N 7 11 30.21 1023 10 16.0934 N/A
7:55 pm 19:55 Clear 32 -0.2 17 -8.6 54 54 N 5 7 30.21 1023 10 16.0934 N/A
8:15 pm 20:15 Clear 31 -0.8 17 -8.2 58 58 N 5 7 30.21 1023 10 16.0934 N/A
8:35 pm 20:35 Clear 30 -1 19 -7.5 62 62 N 7 11 30.21 1023 10 16.0934 N/A
8:55 pm 20:55 Clear 27 -2.6 18 -7.7 68 68 NNW 8 13 30.27 1025 10 16.0934 N/A
9:15 pm 21:15 Clear 28 -2.5 18 -7.6 68 68 NW 9 15 30.27 1025 10 16.0934 N/A
9:35 pm 21:35 Clear 28 -2.5 18 -7.6 68 68 NW 8 13 30.27 1025 10 16.0934 N/A
9:55 pm 21:55 Clear 26 -3.2 17 -8.1 69 69 WNW 7 11 30.27 1025 10 16.0934 N/A
10:15 pm 22:15 Clear 25 -3.8 19 -7.5 76 76 WNW 8 13 30.27 1025 10 16.0934 N/A
10:35 pm 22:35 Clear 26 -3.5 19 -7 77 77 W 7 11 30.27 1025 10 16.0934 N/A
10:55 pm 22:55 Clear 28 -2.4 20 -6.6 73 73 WNW 10 17 30.27 1025 10 16.0934 N/A
11:15 pm 23:15 Clear 27 -2.7 20 -6.9 73 73 WNW 8 13 30.27 1025 10 16.0934 N/A
11:35 pm 23:35 Clear 26 -3.3 19 -7 76 76 WNW 8 13 30.24 1024 10 16.0934 N/A
11:55 pm 23:55 Clear 26 -3.5 20 -6.7 79 79 WNW 9 15 30.24 1024 10 16.0934 N/A

Powered by AerisWeather